Flag Weather past 2 weeks in Sochi, Russia

Now
61 °F

Partly sunny.


Feels Like: 61 °F
Forecast: 57 / 71 °F
Wind: 1 mph from Northwest

Location: Adler

Current Time: Oct 30, 2014 at 4:50:02 PM

Latest Report: Oct 30, 2014 at 4:30 PM


Visibility: N/A

Pressure: 29.92 "Hg

Humidity: 83%

Dew point: 55 °F

Location of SochiLocation

Historic Weather in Sochi — Graph

°F

Sochi temperature yesterday

Maximum temperature yesterday: 64 °F (at 12:30 PM)
Minimum temperature yesterday: 50 °F (at 6:00 AM)
Average temperature yesterday: 57 °F

Past Weeks' High & Low Weather Summary

 TemperatureHumidityPressure
High75 °F (Oct 23, 1:00 PM)94% (Oct 15, 9:30 PM)30.24 "Hg (Oct 15, 9:30 PM)
Low46 °F (Oct 20, 5:30 AM)25% (Oct 23, 1:00 PM)29.62 "Hg (Oct 18, 5:30 PM)
Average58 °F76%30.00 "Hg
* Reported Oct 15 4:00 PM — Oct 30 3:30 PM, Sochi, Weather by CustomWeather, © 2014

Note: Actual official high and low records may vary slightly from our data, if they occured in-between our weather recording intervals... More about our weather records

Advertising

Sochi weather history for previous 24 hours

 ConditionsComfort  
Time TempWeatherWind HumidityBarometerVisibility
3:30 PM
Oct 30
63 °FScattered clouds.8 mph77%29.95 "HgN/A
3:00 PM63 °FScattered clouds.8 mph77%29.95 "HgN/A
2:30 PM64 °FScattered clouds.8 mph73%29.95 "HgN/A
2:00 PM63 °FScattered clouds.10 mph73%29.95 "HgN/A
1:30 PM63 °FPassing clouds.8 mph73%29.95 "HgN/A
1:00 PM63 °FPassing clouds.6 mph68%29.98 "HgN/A
12:30 PM63 °FPassing clouds.6 mph68%29.98 "HgN/A
12:00 PM63 °FPassing clouds.6 mph68%30.01 "HgN/A
11:30 AM63 °FPassing clouds.3 mph68%30.01 "HgN/A
11:00 AM64 °FPassing clouds.No wind64%30.04 "HgN/A
10:30 AM63 °FPassing clouds.No wind68%30.04 "HgN/A
10:00 AM63 °FPassing clouds.No wind68%30.04 "HgN/A
9:30 AM59 °FPassing clouds.3 mph72%30.07 "HgN/A
9:00 AM57 °FPassing clouds.6 mph77%30.07 "HgN/A
8:30 AM55 °FSunny.3 mph82%30.04 "HgN/A
8:00 AM52 °FSunny.No wind88%30.04 "HgN/A
7:30 AM50 °FClear.1 mph88%30.04 "HgN/A
7:00 AM50 °FClear.3 mph88%30.04 "HgN/A
6:30 AM50 °FClear.No wind88%30.04 "HgN/A
6:00 AM50 °FClear.8 mph88%30.07 "HgN/A
5:30 AM50 °FClear.No wind88%30.07 "HgN/A
5:00 AM50 °FClear.3 mph88%30.07 "HgN/A
4:30 AM50 °FClear.No wind88%30.07 "HgN/A
4:00 AM52 °FClear.3 mph82%30.07 "HgN/A
3:30 AM52 °FClear.6 mph88%30.07 "HgN/A
3:00 AM52 °FClear.6 mph88%30.09 "HgN/A
2:30 AM52 °FPassing clouds.8 mph88%30.09 "HgN/A
2:00 AM52 °FPassing clouds.3 mph88%30.09 "HgN/A
1:30 AM52 °FPassing clouds.1 mph94%30.09 "HgN/A
1:00 AM52 °FPassing clouds.No wind94%30.09 "HgN/A
12:30 AM54 °FPassing clouds.3 mph88%30.09 "HgN/A
12:00 AM52 °FPassing clouds.8 mph94%30.09 "HgN/A
11:30 PM
Oct 29
54 °FPassing clouds.8 mph88%30.12 "HgN/A
11:00 PM54 °FPassing clouds.8 mph88%30.12 "HgN/A
10:30 PM52 °FPassing clouds.6 mph94%30.12 "HgN/A
10:00 PM52 °FPassing clouds.6 mph94%30.12 "HgN/A
9:30 PM54 °FPassing clouds.No wind88%30.12 "HgN/A
9:00 PM55 °FPassing clouds.No wind88%30.12 "HgN/A
8:30 PM55 °FClear.1 mph88%30.09 "HgN/A
8:00 PM54 °FClear.3 mph94%30.12 "HgN/A
7:30 PM55 °FClear.3 mph88%30.12 "HgN/A
7:00 PM55 °FClear.No wind88%30.12 "HgN/A
6:30 PM57 °FClear.No wind82%30.12 "HgN/A
6:00 PM59 °FSunny.1 mph77%30.12 "HgN/A
5:30 PM61 °FPassing clouds.3 mph72%30.12 "HgN/A
5:00 PM61 °FPassing clouds.3 mph72%30.12 "HgN/A
4:30 PM63 °FPassing clouds.3 mph68%30.12 "HgN/A
4:00 PM63 °FPassing clouds.3 mph68%30.12 "HgN/A
Weather by CustomWeather, © 2014

See weather overviewHow to use our weather pages